When you browse on this site, cookies collect data to enhance your experience and personalize the content and advertising you see.
Visit our Privacy Policy to learn more. By continuing to use the site, you agree to this use of cookies and data.
  • în România
  • Lista ţărilor
  • Pe 7 zile
  • Temperatura apei
  • Hartă satelitară
  • Meteo pe hartă
  • Widget-uri
  • user-avatar
    Intrare

    Meteo pe oră la Malkowice

    Astăzi, 21 Mai, Marţi

    Timp Temperatura Precipitaţii Vânt Presiune Umiditate
    00:00 +13°C° 0 mm 1 m/s 735 mmHg 90%
    01:00 +12°C° 0 mm 1 m/s 735 mmHg 90%
    02:00 +12°C° 0 mm 1 m/s 735 mmHg 89%
    03:00 +12°C° 0 mm 1 m/s 735 mmHg 88%
    04:00 +12°C° 0 mm 1 m/s 735 mmHg 87%
    05:00 +13°C° 0.1 mm 1 m/s 734 mmHg 87%
    06:00 +14°C° 0.1 mm 2 m/s 734 mmHg 86%
    07:00 +15°C° 0 mm 2 m/s 734 mmHg 87%
    08:00 +14°C° 1.1 mm 3 m/s 734 mmHg 88%
    09:00 +14°C° 1.1 mm 3 m/s 734 mmHg 89%
    10:00 +15°C° 1.1 mm 4 m/s 734 mmHg 89%
    11:00 +14°C° 3.4 mm 4 m/s 734 mmHg 90%
    12:00 +14°C° 3.4 mm 5 m/s 733 mmHg 91%
    13:00 +14°C° 3.4 mm 5 m/s 733 mmHg 92%
    14:00 +14°C° 2 mm 5 m/s 733 mmHg 92%
    15:00 +14°C° 2 mm 5 m/s 733 mmHg 92%
    16:00 +14°C° 2 mm 5 m/s 733 mmHg 92%
    17:00 +14°C° 0.7 mm 5 m/s 732 mmHg 91%
    18:00 +14°C° 0.7 mm 5 m/s 732 mmHg 90%
    19:00 +14°C° 0.7 mm 5 m/s 732 mmHg 89%
    20:00 +14°C° 1.2 mm 6 m/s 732 mmHg 90%
    21:00 +14°C° 1.2 mm 6 m/s 732 mmHg 90%
    22:00 +14°C° 1.2 mm 6 m/s 733 mmHg 91%
    23:00 +14°C° 0.8 mm 6 m/s 733 mmHg 91%

    Mâine, 22 Mai, Miercuri

    Timp Temperatura Precipitaţii Vânt Presiune Umiditate
    00:00 +13°C° 0.8 mm 6 m/s 732 mmHg 91%
    01:00 +13°C° 0.8 mm 5 m/s 732 mmHg 92%
    02:00 +13°C° 0.6 mm 5 m/s 732 mmHg 92%
    03:00 +13°C° 0.6 mm 5 m/s 732 mmHg 93%
    04:00 +13°C° 0.6 mm 4 m/s 732 mmHg 93%
    05:00 +13°C° 0.8 mm 4 m/s 732 mmHg 92%
    06:00 +14°C° 0.8 mm 4 m/s 733 mmHg 92%
    07:00 +14°C° 0.8 mm 4 m/s 733 mmHg 91%
    08:00 +15°C° 0.7 mm 4 m/s 733 mmHg 89%
    09:00 +15°C° 0.7 mm 4 m/s 734 mmHg 87%
    10:00 +17°C° 0.7 mm 4 m/s 734 mmHg 86%
    11:00 +17°C° 0.6 mm 4 m/s 734 mmHg 85%
    12:00 +16°C° 0.6 mm 5 m/s 734 mmHg 85%
    13:00 +16°C° 0.6 mm 5 m/s 734 mmHg 85%
    14:00 +16°C° 0.1 mm 5 m/s 734 mmHg 84%
    15:00 +16°C° 0.1 mm 5 m/s 734 mmHg 84%
    16:00 +16°C° 0.1 mm 5 m/s 734 mmHg 83%
    17:00 +15°C° 0.6 mm 5 m/s 734 mmHg 86%
    18:00 +15°C° 0.6 mm 5 m/s 734 mmHg 88%
    19:00 +14°C° 0.6 mm 4 m/s 734 mmHg 91%
    20:00 +14°C° 0.9 mm 4 m/s 735 mmHg 92%
    21:00 +14°C° 0.9 mm 4 m/s 735 mmHg 94%
    22:00 +13°C° 0.9 mm 4 m/s 735 mmHg 95%
    23:00 +13°C° 1.1 mm 5 m/s 736 mmHg 96%

    Poimâine, 23 Mai, Joi

    Timp Temperatura Precipitaţii Vânt Presiune Umiditate
    00:00 +13°C° 1.1 mm 5 m/s 736 mmHg 96%
    01:00 +13°C° 1.1 mm 5 m/s 736 mmHg 96%
    02:00 +13°C° 0.8 mm 5 m/s 736 mmHg 96%
    03:00 +14°C° 0.8 mm 5 m/s 736 mmHg 96%
    04:00 +14°C° 0.8 mm 5 m/s 737 mmHg 95%
    05:00 +14°C° 1.6 mm 5 m/s 737 mmHg 95%
    06:00 +14°C° 1.6 mm 5 m/s 737 mmHg 94%
    07:00 +14°C° 1.6 mm 5 m/s 738 mmHg 93%
    08:00 +14°C° 2.2 mm 5 m/s 738 mmHg 93%
    09:00 +15°C° 2.2 mm 5 m/s 738 mmHg 92%
    10:00 +15°C° 2.2 mm 5 m/s 739 mmHg 92%
    11:00 +15°C° 1.6 mm 6 m/s 739 mmHg 91%
    12:00 +15°C° 1.6 mm 7 m/s 739 mmHg 91%
    13:00 +15°C° 1.6 mm 8 m/s 739 mmHg 90%
    14:00 +15°C° 0.6 mm 8 m/s 740 mmHg 91%
    15:00 +14°C° 0.6 mm 7 m/s 740 mmHg 91%
    16:00 +12°C° 0.6 mm 7 m/s 740 mmHg 92%
    17:00 +12°C° 0.4 mm 7 m/s 740 mmHg 93%
    18:00 +12°C° 0.4 mm 7 m/s 740 mmHg 93%
    19:00 +11°C° 0.4 mm 6 m/s 740 mmHg 93%
    20:00 +11°C° 0.3 mm 6 m/s 741 mmHg 93%
    21:00 +11°C° 0.3 mm 6 m/s 741 mmHg 93%
    22:00 +12°C° 0.3 mm 5 m/s 741 mmHg 92%
    23:00 +12°C° 0.2 mm 5 m/s 741 mmHg 92%

    24 Mai, Vineri

    Timp Temperatura Precipitaţii Vânt Presiune Umiditate
    00:00 +12°C° 0.2 mm 5 m/s 741 mmHg 93%
    01:00 +11°C° 0.2 mm 4 m/s 741 mmHg 93%
    02:00 +11°C° 0.1 mm 4 m/s 741 mmHg 93%
    03:00 +11°C° 0.1 mm 4 m/s 741 mmHg 93%
    04:00 +10°C° 0.1 mm 4 m/s 741 mmHg 93%
    05:00 +10°C° 0.5 mm 4 m/s 741 mmHg 92%
    06:00 +10°C° 0.5 mm 4 m/s 741 mmHg 91%
    07:00 +10°C° 0.5 mm 4 m/s 741 mmHg 91%
    08:00 +10°C° 0.3 mm 4 m/s 741 mmHg 90%
    09:00 +11°C° 0.3 mm 3 m/s 741 mmHg 88%
    10:00 +11°C° 0.3 mm 3 m/s 741 mmHg 87%
    11:00 +12°C° 0.1 mm 3 m/s 741 mmHg 85%
    12:00 +12°C° 0.1 mm 3 m/s 741 mmHg 83%
    13:00 +14°C° 0.1 mm 2 m/s 741 mmHg 82%
    14:00 +15°C° 0 mm 2 m/s 740 mmHg 81%
    15:00 +16°C° 0 mm 2 m/s 740 mmHg 80%
    16:00 +16°C° 0 mm 2 m/s 740 mmHg 79%
    17:00 +16°C° 0 mm 2 m/s 740 mmHg 80%
    18:00 +15°C° 0 mm 2 m/s 740 mmHg 81%
    19:00 +15°C° 0 mm 2 m/s 740 mmHg 81%
    20:00 +14°C° 0 mm 2 m/s 740 mmHg 82%
    21:00 +13°C° 0 mm 2 m/s 740 mmHg 83%
    22:00 +13°C° 0 mm 2 m/s 740 mmHg 84%
    23:00 +12°C° 0 mm 2 m/s 740 mmHg 85%

    25 Mai, Sâmbătă

    Timp Temperatura Precipitaţii Vânt Presiune Umiditate
    00:00 +10°C° 0 mm 2 m/s 740 mmHg 86%
    01:00 +9°C° 0 mm 2 m/s 740 mmHg 87%
    02:00 +9°C° 0 mm 2 m/s 740 mmHg 87%
    03:00 +9°C° 0 mm 2 m/s 740 mmHg 88%
    04:00 +9°C° 0 mm 3 m/s 740 mmHg 88%
    05:00 +10°C° 0 mm 3 m/s 740 mmHg 85%
    06:00 +12°C° 0 mm 3 m/s 739 mmHg 83%
    07:00 +14°C° 0 mm 3 m/s 739 mmHg 80%
    08:00 +15°C° 0.1 mm 4 m/s 739 mmHg 76%
    09:00 +18°C° 0.1 mm 4 m/s 739 mmHg 71%
    10:00 +19°C° 0.1 mm 4 m/s 739 mmHg 67%
    11:00 +19°C° 0.7 mm 5 m/s 739 mmHg 69%
    12:00 +19°C° 0.7 mm 5 m/s 739 mmHg 72%
    13:00 +19°C° 0.7 mm 6 m/s 739 mmHg 74%
    14:00 +19°C° 0.4 mm 5 m/s 739 mmHg 73%
    15:00 +19°C° 0.4 mm 5 m/s 739 mmHg 73%
    16:00 +18°C° 0.4 mm 4 m/s 739 mmHg 72%
    17:00 +17°C° 0.1 mm 4 m/s 739 mmHg 76%
    18:00 +16°C° 0.1 mm 3 m/s 739 mmHg 80%
    19:00 +13°C° 0.1 mm 3 m/s 739 mmHg 84%
    20:00 +13°C° 0 mm 2 m/s 740 mmHg 86%
    21:00 +12°C° 0 mm 2 m/s 740 mmHg 87%
    22:00 +11°C° 0 mm 1 m/s 740 mmHg 89%
    23:00 +10°C° 0 mm 2 m/s 740 mmHg 88%

    26 Mai, Duminică

    Timp Temperatura Precipitaţii Vânt Presiune Umiditate
    00:00 +12°C° 0 mm 2 m/s 740 mmHg 88%
    01:00 +12°C° 0 mm 2 m/s 740 mmHg 87%
    02:00 +10°C° 0 mm 3 m/s 740 mmHg 86%
    03:00 +10°C° 0 mm 3 m/s 740 mmHg 85%
    04:00 +10°C° 0 mm 3 m/s 740 mmHg 84%
    05:00 +10°C° 0 mm 4 m/s 739 mmHg 82%
    06:00 +11°C° 0 mm 4 m/s 739 mmHg 81%
    07:00 +12°C° 0 mm 5 m/s 739 mmHg 79%
    08:00 +13°C° 0.1 mm 5 m/s 739 mmHg 76%
    09:00 +14°C° 0.1 mm 6 m/s 739 mmHg 73%
    10:00 +14°C° 0.1 mm 6 m/s 739 mmHg 70%
    11:00 +14°C° 0.1 mm 6 m/s 739 mmHg 70%
    12:00 +15°C° 0.1 mm 6 m/s 739 mmHg 69%
    13:00 +15°C° 0.1 mm 6 m/s 739 mmHg 69%
    14:00 +15°C° 0.1 mm 6 m/s 739 mmHg 70%
    15:00 +15°C° 0.1 mm 6 m/s 738 mmHg 71%
    16:00 +14°C° 0.1 mm 6 m/s 738 mmHg 73%
    17:00 +13°C° 0.1 mm 5 m/s 738 mmHg 76%
    18:00 +13°C° 0.1 mm 4 m/s 738 mmHg 79%
    19:00 +12°C° 0.1 mm 3 m/s 738 mmHg 82%
    20:00 +11°C° 0.1 mm 3 m/s 738 mmHg 81%
    21:00 +11°C° 0.1 mm 3 m/s 739 mmHg 81%
    22:00 +10°C° 0.1 mm 2 m/s 739 mmHg 81%
    23:00 +10°C° 0.3 mm 2 m/s 739 mmHg 84%
    Arată mai mult